Location: Mahannah Oil Field
(37.4664°N, 96.6003°W)
Time: 03:11:58
(UTC+00:00)

A-11 Canister half - Pass Details

Date: 28 January 2021
Orbit: 1525 x 1684 km, 47.3° (Epoch: 02 March)

Event Time Altitude Azimuth Distance (km) Brightness Sun altitude
Rises 01:28:05 0° 301° (WNW) 4,735 12.4 -20.4°
Reaches altitude 10° 01:31:08 10° 302° (WNW) 3,769 11.7 -21.0°
Maximum altitude 01:40:46 80° 30° (NNE) 1,635 9.0 -22.9°
Enters shadow 01:46:04 33° 113° (ESE) 2,509 9.6 -24.0°
Drops below altitude 10° 01:50:44 10° 117° (ESE) 3,887 - -24.9°
Sets 01:53:55 0° 119° (ESE) 4,890 - -25.5°
